This is the latest recevied weather packets stored in our database for station/object KE8DDT-7. If no packets are shown the sender has not sent any weather packets the latest 10 day(s).
| Time | Temp. | Humidity | Pressure | Rain* | Wind** | Luminosity | Snow |
|---|---|---|---|---|---|---|---|
| 1778189389 | 12.22° C | 45% | 1003.4 hPa | 0 mm | - | 128 W/m² | - |
| 1778189088 | 12.22° C | 44% | 1003.4 hPa | 0 mm | - | 135 W/m² | - |
| 1778188789 | 11.67° C | 45% | 1003.3 hPa | 0 mm | - | 192 W/m² | - |
| 1778188489 | 11.67° C | 44% | 1003.4 hPa | 0 mm | - | 176 W/m² | - |
| 1778187889 | 11.67° C | 44% | 1003.3 hPa | 0 mm | - | 163 W/m² | - |
| 1778187588 | 12.22° C | 44% | 1003.4 hPa | 0 mm | - | 128 W/m² | - |
| 1778187289 | 12.22° C | 43% | 1003.3 hPa | 0 mm | - | 98 W/m² | - |
| 1778186988 | 11.67° C | 46% | 1003.4 hPa | 0 mm | - | 135 W/m² | - |
| 1778186688 | 11.67° C | 44% | 1003.5 hPa | 0 mm | - | 188 W/m² | - |
| 1778186389 | 11.67° C | 43% | 1003.5 hPa | 0 mm | - | 220 W/m² | - |
| 1778186088 | 12.22° C | 44% | 1003.4 hPa | 0 mm | - | 153 W/m² | - |
| 1778185432 | 11.67° C | 45% | 1003.5 hPa | 0 mm | - | 172 W/m² | - |
| 1778184880 | 11.67° C | 45% | 1003.6 hPa | 0 mm | - | 179 W/m² | - |
| 1778184580 | 11.67° C | 43% | 1003.8 hPa | 0 mm | - | 244 W/m² | - |
| 1778184279 | 11.67° C | 42% | 1003.7 hPa | 0 mm | - | 199 W/m² | - |
| 1778183979 | 11.67° C | 43% | 1003.7 hPa | 0 mm | - | 253 W/m² | - |
| 1778183679 | 11.67° C | 43% | 1003.8 hPa | 0 mm | - | 283 W/m² | - |
| 1778183379 | 11.67° C | 43% | 1003.9 hPa | 0 mm | - | 236 W/m² | - |
| 1778182932 | 12.22° C | 44% | 1003.9 hPa | 0 mm | - | 216 W/m² | - |
| 1778182632 | 11.67° C | 43% | 1003.9 hPa | 0 mm | - | 243 W/m² | - |
| 1778182332 | 12.22° C | 43% | 1003.9 hPa | 0 mm | - | 251 W/m² | - |
| 1778182032 | 12.22° C | 43% | 1003.9 hPa | 0 mm | - | 246 W/m² | - |
| 1778181732 | 11.67° C | 43% | 1003.9 hPa | 0 mm | - | 229 W/m² | - |
| 1778181432 | 11.67° C | 43% | 1003.9 hPa | 0 mm | - | 230 W/m² | - |
| 1778181132 | 11.67° C | 44% | 1004 hPa | 0 mm | - | 264 W/m² | - |
* Rain latest hour (hover to see other rain measurements)
** Current wind speed in m/s (hover to see current wind gust speed)